Content
SEND FEEDBACK

Daily
Averages
Monthly
Summary
Canada

VANCOUVER - UNIVERSITY, BRITISH COLUMBIA


Home > North America > Canada > British Columbia
Elevation: 249 feet     Latitude: 49 15N     Longitude: 123 15W

WEATHER
 
SELECT A DAY
Number of Records: 194,309;   Date Range: 1/1/95 - 7/20/14
 
SHARE

PRINT THIS DATA

[ ← Previous Day ]
WEATHER ALMANAC - APRIL 17, 2013
[ Next Day → ]
[ °C ]   °F
Weather ElementAverageHighLow
Temperature49.5 °F57.2 °F (2:00 pm)42.8 °F (1:00 am)
Dewpoint34.4 °F44.6 °F (8:00 pm) (7:00 pm)
Humidity64 %87 % (10:00 pm)41 % (5:00 pm)
Barometer27.37 in30.44 in (11:00 am) (7:00 pm)
Wind Speed9 mph16.1 mph (9:00 am)
Weather ElementAverage
Visibility23.7 mi
Wind DirectionSSE (166.7 °)

Weather ElementTotal
Precipitation---
Heating Degree Days15 (Base 65)
Averaged from 30 records on April 17, 2013
WEATHER CONDITIONS BREAKOUT
WIND DIRECTION BREAKOUT
WEATHER BY HOUR - APRIL 17, 2013
[ °C ]   °F
Local TimeTemperatureDewpointHumidityBarometerVisibilityWind DirectionWind SpeedGust SpeedPrecipitationEventsConditions
1:00 AM42.8 °F33.8 °F70 %30.39 in30.0 miEast (90°)6.9 mphMostly Cloudy
2:00 AM44.6 °F33.8 °F66 %30.40 in20.0 miESE (110°)6.9 mphOvercast
3:00 AM42.8 °F33.8 °F70 %30.40 in20.0 miEast (100°)10.4 mphOvercast
4:00 AM42.8 °F33.8 °F70 %30.40 in20.0 miEast (100°)10.4 mphMostly Cloudy
5:00 AM43.0 °F34.0 °F60 %30.40 in19.0 miEast (100°)11.5 mphOvercast
5:00 AM42.8 °F33.8 °F70 %30.40 in20.0 miEast (100°)11.5 mphOvercast
6:00 AM42.8 °F33.8 °F70 %30.40 in20.0 miEast (90°)10.4 mphOvercast
7:00 AM44.6 °F33.8 °F66 %30.42 in20.0 miEast (80°)10.4 mphOvercast
8:00 AM46.4 °F35.6 °F66 %30.43 in30.0 miEast (90°)10.4 mphOvercast
9:00 AM50.0 °F37.4 °F62 %30.42 in30.0 miESE (110°)16.1 mphMostly Cloudy
10:00 AM50.0 °F37.4 °F62 %30.43 in30.0 miSE (140°)15.0 mphOvercast
11:00 AM51.0 °F39.0 °F53 %30.44 in28.0 miSE (130°)10.4 mphOvercast
11:00 AM50.0 °F39.2 °F66 %30.44 in30.0 miSSE (150°)10.4 mphOvercast
12:00 PM51.8 °F39.2 °F62 %30.44 in30.0 miSE (130°)9.2 mphOvercast
1:00 PM55.4 °F41.0 °F58 %30.43 in30.0 miSSE (150°)8.1 mphOvercast
2:00 PM57.2 °F39.2 °F51 %30.42 in30.0 miSouth (170°)5.8 mphOvercast
3:00 PM57.2 °F41.0 °F55 %30.41 in30.0 miESE (120°)4.6 mphOvercast
4:00 PM57.2 °F39.2 °F51 %30.40 in30.0 miSSE (150°)6.9 mphOvercast
5:00 PM56.0 °F39.0 °F41 %30.40 in28.0 miSSE (160°)8.1 mphOvercast
5:00 PM55.4 °F39.2 °F54 %30.40 in30.0 miSSE (160°)8.1 mphOvercast
6:00 PM55.4 °F37.4 °F51 %30.39 in30.0 miSSE (160°)4.6 mphOvercast
7:00 PM55.4 °F39.2 °F54 %30.39 in20.0 miWSW (250°)9.2 mphOvercast
8:00 PM50.0 °F44.6 °F82 %30.40 in20.0 miWNW (300°)9.2 mphOvercast
9:00 PM50.0 °F42.8 °F76 %30.41 in20.0 miWest (270°)11.5 mphOvercast
9:47 PM48.2 °F0.0 °F20.0 miWest (270°)9.2 mphRainLight Rain
10:00 PM48.2 °F44.6 °F87 %30.41 in15.0 miWest (280°)8.1 mphRainLight Rain
10:22 PM48.2 °F0.0 °F15.0 miWest (280°)6.9 mphOvercast
11:00 PM49.0 °F43.0 °F74 %30.41 in15.0 miWSW (250°)6.9 mphRainLight Rain
11:00 PM48.2 °F42.8 °F82 %30.41 in15.0 miWSW (250°)6.9 mphOvercast
11:17 PM48.2 °F0.0 °F15.0 miWest (260°)5.8 mphRainLight Rain
Hourly data recorded from CYVR, located miles away from Vancouver - University, British Columbia







STORIES FROM OUR PARTNERS